Location: Akdamlar
(36.8729°N, 30.5187°E)
Time: 20:51:39
(UTC+00:00)

YAOGAN 1 - Pass Details

Date: 18 September 2020
Orbit: 618 x 620 km, 97.9° (Epoch: 24 October)

Event Time Altitude Azimuth Distance (km) Brightness Sun altitude
Rises 16:41:44 0° 167° (SSE) 2,881 5.8 -9.0°
Reaches altitude 10° 16:43:55 10° 167° (SSE) 1,980 4.9 -9.5°
Maximum altitude 16:48:13 88° 254° (WSW) 626 2.6 -10.3°
Drops below altitude 10° 16:52:34 10° 347° (NNW) 1,994 5.5 -11.2°
Sets 16:54:46 0° 348° (NNW) 2,904 6.3 -11.6°
